Location: Arroyo de Valdeoliva
(40.1604°N, 4.9878°W)
Time: 15:27:47
(UTC+00:00)

IRAS Rocket - Pass Details

Date: 11 December 2025
Orbit: 846 x 875 km, 100.1° (Epoch: 16 January)

Event Time Altitude Azimuth Distance (km) Brightness Sun altitude
Rises 19:09:29 0° 168° (SSE) 3,404 7.3 -25.0°
Reaches altitude 10° 19:11:51 10° 170° (S) 2,469 6.6 -25.5°
Maximum altitude 19:17:19 75° 255° (WSW) 880 4.3 -26.5°
Drops below altitude 10° 19:22:48 10° 341° (NNW) 2,476 6.7 -27.5°
Sets 19:25:11 0° 343° (NNW) 3,415 7.5 -28.0°
